{"data":{"norad_id":69273,"intl_designator":"2026-118G","name":"KUIPER-00581","alt_names":[],"object_type":"PAYLOAD","status":"ACTIVE","operator":null,"country":"US","launch_date":"2026-05-29","launch_site_code":"AFETR","launch_vehicle":null,"mission":null,"orbit_class":"UNKNOWN","rcs_meters":null,"size_class":null,"mass_kg":null,"dimensions":null,"purposes":[],"wikipedia_slug":null,"has_3d_model":false,"image_url":null,"decayed_at":null,"tle_current":{"epoch":"2026-09-20T05:13:51.635136Z","epoch_age_seconds":55213,"freshness":"FRESH","line1":"1 69273U 26118G   26263.21795874  .00003783  00000+0  52471-3 0  9999","line2":"2 69273  51.9068 342.9404 0001060 190.4394 169.6547 14.79949920 18282","mean_motion":14.7994992,"eccentricity":0.000106,"inclination_deg":51.9068,"raan_deg":342.9404,"arg_perigee_deg":190.4394,"mean_anomaly_deg":169.6547,"bstar":0.00052471,"rev_number":1828,"period_min":97.300589738874,"perigee_km":628.73940979961,"apogee_km":630.22502507371,"semimajor_km":7007.6192174367,"source":"CELESTRAK","updated_at":"2026-09-20T09:00:24.777364Z"}}}